Location: Cluj-Napoca
(46.7712°N, 23.6236°E)
Time: 06:33:16
(UTC+03:00)

ISS - Pass Details

Date: 30 March 2020
Orbit: 417 x 423 km, 51.6° (Epoch: 29 March)

Event Time Altitude Azimuth Distance (km) Brightness Sun altitude
Rises 21:57:43 0° 296° (WNW) 2,363 1.6 -21.0°
Reaches altitude 10° 21:59:49 10° 297° (WNW) 1,498 0.2 -21.3°
Enters shadow 22:02:43 63° 309° (NW) 469 -3.4 -21.7°
